| time (UTC) | temp F | wind direction | speed knots | gust knots | rain 1hr in | rain 24hr in | rain mn in | humidity % | barometer mb |
| 20260507005244 | 52 | 0 | 0.0 | 0.0 | 0.00 | 0.63 | 0.27 | 44 | 1016.0 |
| 20260507004258 | 52 | 0 | 0.0 | 3.5 | 0.00 | 0.65 | 0.27 | 43 | 1015.8 |
| 20260507002120 | 53 | 0 | 0.9 | 4.3 | 0.00 | 0.70 | 0.27 | 39 | 1015.6 |
| 20260507000033 | 53 | 0 | 0.0 | 2.6 | 0.00 | 0.74 | 0.27 | 40 | 1015.5 |
| 20260506233910 | 54 | 0 | 0.0 | 1.7 | 0.00 | 0.76 | 0.27 | 40 | 1015.4 |
| 20260506232839 | 54 | 0 | 0.9 | 4.3 | 0.00 | 0.78 | 0.27 | 38 | 1015.4 |
| 20260506231847 | 54 | 0 | 0.9 | 9.6 | 0.00 | 0.80 | 0.27 | 37 | 1015.6 |
| 20260506225652 | 55 | 0 | 0.9 | 9.6 | 0.00 | 0.82 | 0.27 | 37 | 1015.8 |
| 20260506224647 | 55 | 0 | 0.9 | 4.3 | 0.00 | 0.84 | 0.27 | 37 | 1015.9 |
| 20260506223624 | 55 | 0 | 0.0 | 4.3 | 0.00 | 0.84 | 0.27 | 37 | 1015.9 |
| 20260506222626 | 55 | 0 | 0.9 | 3.5 | 0.00 | 0.84 | 0.27 | 37 | 1015.7 |
| 20260506221641 | 55 | 0 | 0.9 | 6.1 | 0.00 | 0.85 | 0.27 | 35 | 1015.7 |
| 20260506215539 | 55 | 0 | 1.7 | 7.0 | 0.00 | 0.88 | 0.27 | 34 | 1015.5 |
| 20260506214517 | 55 | 0 | 1.7 | 7.8 | 0.00 | 0.88 | 0.27 | 37 | 1015.4 |
| 20260506213510 | 55 | 0 | 0.9 | 10.4 | 0.00 | 0.88 | 0.27 | 38 | 1015.2 |
| 20260506212505 | 55 | 0 | 1.7 | 10.4 | 0.00 | 0.89 | 0.27 | 34 | 1015.0 |
| 20260506211456 | 56 | 0 | 1.7 | 7.0 | 0.00 | 0.90 | 0.27 | 37 | 1015.1 |
| 20260506210502 | 56 | 0 | 1.7 | 6.1 | 0.00 | 0.92 | 0.27 | 38 | 1015.0 |
| 20260506205508 | 56 | 0 | 0.9 | 6.1 | 0.00 | 0.96 | 0.27 | 38 | 1015.1 |
| 20260506204526 | 56 | 0 | 0.9 | 9.6 | 0.00 | 1.04 | 0.27 | 37 | 1015.0 |
| 20260506203544 | 56 | 0 | 1.7 | 9.6 | 0.00 | 1.05 | 0.27 | 38 | 1014.9 |
| 20260506201406 | 56 | 0 | 1.7 | 8.7 | 0.00 | 1.06 | 0.27 | 37 | 1014.9 |
| 20260506200423 | 56 | 0 | 2.6 | 8.7 | 0.00 | 1.06 | 0.27 | 36 | 1014.8 |
| 20260506195434 | 56 | 0 | 1.7 | 8.7 | 0.00 | 1.06 | 0.27 | 39 | 1014.8 |
| 20260506194419 | 55 | 0 | 1.7 | 7.8 | 0.00 | 1.06 | 0.27 | 40 | 1014.9 |
| 20260506193400 | 55 | 0 | 0.9 | 6.1 | 0.00 | 1.06 | 0.27 | 40 | 1014.9 |
| 20260506192405 | 56 | 0 | 2.6 | 7.0 | 0.00 | 1.06 | 0.27 | 39 | 1014.9 |
| 20260506191333 | 56 | 0 | 0.9 | 7.0 | 0.00 | 1.06 | 0.27 | 39 | 1014.8 |
| 20260506190322 | 56 | 0 | 0.9 | 7.0 | 0.00 | 1.06 | 0.27 | 42 | 1014.8 |
| 20260506184141 | 57 | 0 | 2.6 | 9.6 | 0.00 | 1.06 | 0.27 | 39 | 1014.6 |
| 20260506183202 | 57 | 0 | 1.7 | 9.6 | 0.00 | 1.06 | 0.27 | 35 | 1014.7 |
| 20260506182219 | 57 | 0 | 2.6 | 8.7 | 0.00 | 1.06 | 0.27 | 37 | 1014.6 |
| 20260506174935 | 58 | 0 | 2.6 | 8.7 | 0.00 | 1.06 | 0.27 | 35 | 1014.6 |
| 20260506173914 | 58 | 0 | 2.6 | 8.7 | 0.00 | 1.06 | 0.27 | 37 | 1014.7 |
| 20260506172931 | 58 | 0 | 1.7 | 8.7 | 0.00 | 1.06 | 0.27 | 38 | 1014.6 |
| 20260506171905 | 59 | 0 | 1.7 | 7.8 | 0.00 | 1.06 | 0.27 | 39 | 1014.7 |
| 20260506170853 | 59 | 0 | 1.7 | 7.8 | 0.00 | 1.06 | 0.27 | 38 | 1014.5 |
| 20260506165845 | 59 | 0 | 0.9 | 7.8 | 0.00 | 1.06 | 0.27 | 41 | 1014.4 |
| 20260506164859 | 58 | 0 | 0.9 | 7.8 | 0.00 | 1.06 | 0.27 | 40 | 1014.6 |
| 20260506163904 | 58 | 0 | 2.6 | 7.8 | 0.00 | 1.06 | 0.27 | 38 | 1014.7 |
| 20260506162903 | 56 | 0 | 0.9 | 7.0 | 0.00 | 1.06 | 0.27 | 41 | 1014.6 |
| 20260506161926 | 57 | 0 | 2.6 | 7.0 | 0.00 | 1.06 | 0.27 | 40 | 1014.5 |
| 20260506160858 | 57 | 0 | 1.7 | 9.6 | 0.00 | 1.06 | 0.27 | 44 | 1014.7 |
| 20260506155907 | 56 | 0 | 3.5 | 8.7 | 0.00 | 1.06 | 0.27 | 40 | 1014.5 |
| 20260506154927 | 56 | 0 | 1.7 | 7.0 | 0.00 | 1.06 | 0.27 | 41 | 1014.2 |
| 20260506153942 | 56 | 0 | 1.7 | 8.7 | 0.00 | 1.06 | 0.27 | 41 | 1014.3 |
| 20260506152925 | 55 | 0 | 1.7 | 8.7 | 0.00 | 1.06 | 0.27 | 41 | 1014.0 |
| 20260506151935 | 54 | 0 | 1.7 | 9.6 | 0.00 | 1.06 | 0.27 | 44 | 1013.8 |
| 20260506150951 | 53 | 0 | 2.6 | 9.6 | 0.00 | 1.06 | 0.27 | 45 | 1013.8 |
| 20260506145928 | 52 | 0 | 1.7 | 7.0 | 0.00 | 1.06 | 0.27 | 46 | 1013.8 |
| 20260506143805 | 50 | 0 | 1.7 | 7.0 | 0.00 | 1.06 | 0.27 | 48 | 1013.7 |
| 20260506142745 | 50 | 0 | 0.9 | 7.0 | 0.00 | 1.06 | 0.27 | 48 | 1013.7 |
| 20260506141740 | 49 | 0 | 1.7 | 7.0 | 0.00 | 1.06 | 0.27 | 49 | 1013.5 |
| 20260506140716 | 48 | 0 | 2.6 | 9.6 | 0.00 | 1.06 | 0.27 | 51 | 1013.3 |
| 20260506135644 | 48 | 0 | 1.7 | 10.4 | 0.00 | 1.06 | 0.27 | 52 | 1013.2 |
| 20260506134645 | 47 | 0 | 1.7 | 10.4 | 0.00 | 1.06 | 0.27 | 54 | 1013.1 |
| 20260506133650 | 47 | 0 | 1.7 | 7.8 | 0.00 | 1.06 | 0.27 | 55 | 1013.0 |
| 20260506132618 | 46 | 0 | 0.9 | 7.0 | 0.00 | 1.06 | 0.27 | 56 | 1013.0 |
| 20260506131601 | 46 | 0 | 0.9 | 7.8 | 0.00 | 1.06 | 0.27 | 58 | 1013.1 |
| 20260506130527 | 45 | 0 | 0.9 | 7.8 | 0.00 | 1.06 | 0.27 | 59 | 1012.7 |
| 20260506125458 | 45 | 0 | 0.9 | 6.1 | 0.00 | 1.06 | 0.27 | 60 | 1012.7 |
| 20260506124440 | 44 | 0 | 0.0 | 3.5 | 0.00 | 1.06 | 0.27 | 61 | 1012.7 |
| 20260506123504 | 44 | 0 | 0.9 | 3.5 | 0.00 | 1.06 | 0.27 | 62 | 1012.5 |
| 20260506122516 | 44 | 0 | 0.9 | 7.0 | 0.00 | 1.06 | 0.27 | 62 | 1012.3 |
| 20260506121507 | 44 | 0 | 0.9 | 7.0 | 0.00 | 1.06 | 0.27 | 63 | 1012.3 |
| 20260506120515 | 44 | 0 | 0.0 | 3.5 | 0.00 | 1.06 | 0.27 | 64 | 1012.0 |
| 20260506115502 | 44 | 0 | 0.9 | 7.8 | 0.00 | 1.06 | 0.27 | 64 | 1011.8 |
| 20260506114445 | 43 | 0 | 1.7 | 7.8 | 0.00 | 1.06 | 0.27 | 65 | 1011.9 |
| 20260506113411 | 44 | 0 | 0.9 | 3.5 | 0.00 | 1.06 | 0.27 | 65 | 1011.3 |
| 20260506112421 | 43 | 0 | 0.9 | 7.8 | 0.00 | 1.06 | 0.27 | 65 | 1011.1 |
| 20260506111418 | 43 | 0 | 0.9 | 7.8 | 0.00 | 1.06 | 0.27 | 65 | 1010.8 |
| 20260506110402 | 43 | 0 | 0.9 | 6.1 | 0.00 | 1.06 | 0.27 | 65 | 1010.7 |
| 20260506105421 | 44 | 0 | 0.9 | 8.7 | 0.00 | 1.06 | 0.27 | 66 | 1010.5 |
| 20260506103255 | 44 | 0 | 0.9 | 3.5 | 0.00 | 1.06 | 0.27 | 66 | 1010.4 |
| 20260506102305 | 44 | 0 | 0.9 | 7.0 | 0.00 | 1.06 | 0.27 | 66 | 1010.0 |
| 20260506101237 | 44 | 0 | 1.7 | 9.6 | 0.00 | 1.06 | 0.27 | 66 | 1010.4 |
| 20260506100241 | 44 | 0 | 1.7 | 9.6 | 0.00 | 1.06 | 0.27 | 66 | 1010.5 |
| 20260506095252 | 45 | 0 | 0.9 | 7.0 | 0.00 | 1.06 | 0.27 | 66 | 1010.0 |
| 20260506093210 | 44 | 0 | 0.0 | 2.6 | 0.00 | 1.06 | 0.27 | 66 | 1009.3 |
| 20260506092152 | 44 | 0 | 0.9 | 2.6 | 0.00 | 1.06 | 0.27 | 66 | 1009.5 |
| 20260506090105 | 45 | 0 | 0.9 | 4.3 | 0.00 | 1.06 | 0.27 | 66 | 1009.4 |
| 20260506085121 | 45 | 0 | 0.9 | 3.5 | 0.04 | 1.06 | 0.27 | 66 | 1009.5 |
| 20260506082921 | 45 | 0 | 1.7 | 7.0 | 0.06 | 1.05 | 0.27 | 66 | 1009.7 |
| 20260506081851 | 45 | 0 | 1.7 | 10.4 | 0.18 | 1.04 | 0.26 | 66 | 1009.8 |
| 20260506072643 | 45 | 0 | 1.7 | 8.7 | 0.00 | 0.97 | 0.19 | 66 | 1009.0 |
| 20260506071643 | 45 | 0 | 1.7 | 8.7 | 0.00 | 0.97 | 0.19 | 66 | 1009.0 |
| 20260506070639 | 46 | 0 | 1.7 | 8.7 | 0.00 | 0.96 | 0.18 | 66 | 1009.3 |
| 20260506062431 | 45 | 0 | 0.9 | 7.0 | 0.06 | 0.92 | 0.13 | 65 | 1009.2 |
| 20260506061450 | 45 | 0 | 0.9 | 6.1 | 0.06 | 0.91 | 0.13 | 65 | 1009.1 |
| 20260506051322 | 46 | 0 | 0.9 | 4.3 | 0.04 | 0.84 | 0.06 | 65 | 1009.4 |
| 20260506050312 | 46 | 0 | 0.9 | 10.4 | 0.09 | 0.84 | 0.06 | 65 | 1009.3 |
| 20260506044241 | 46 | 0 | 0.9 | 7.0 | 0.13 | 0.81 | 0.03 | 65 | 1009.7 |
| 20260506043243 | 47 | 0 | 1.7 | 6.1 | 0.00 | 0.78 | 0.01 | 65 | 1009.8 |
| 20260506042306 | 47 | 0 | 0.9 | 6.1 | 0.00 | 0.78 | 0.00 | 65 | 1009.6 |
| 20260506041247 | 47 | 0 | 0.9 | 3.5 | 0.00 | 0.78 | 0.00 | 65 | 1009.5 |
| 20260506040245 | 47 | 0 | 0.9 | 3.5 | 0.00 | 0.78 | 0.00 | 65 | 1009.4 |
| 20260506034138 | 47 | 0 | 0.9 | 4.3 | 0.05 | 0.78 | 0.77 | 65 | 1009.5 |
| 20260506033139 | 47 | 0 | 0.9 | 4.3 | 0.06 | 0.77 | 0.77 | 65 | 1009.4 |
| 20260506032157 | 48 | 0 | 0.9 | 3.5 | 0.06 | 0.76 | 0.76 | 64 | 1009.6 |
| 20260506031126 | 48 | 0 | 0.9 | 4.3 | 0.10 | 0.73 | 0.75 | 64 | 1009.8 |
| 20260506030144 | 48 | 0 | 0.9 | 4.3 | 0.13 | 0.72 | 0.73 | 64 | 1010.0 |
| 20260506025111 | 49 | 0 | 0.9 | 4.3 | 0.06 | 0.70 | 0.71 | 64 | 1010.0 |
| 20260506021751 | 49 | 0 | 0.9 | 8.7 | 0.06 | 0.65 | 0.65 | 64 | 1010.0 |
| 20260506015607 | 50 | 0 | 1.7 | 7.8 | 0.12 | 0.62 | 0.62 | 62 | 1009.8 |
| 20260506014543 | 50 | 0 | 1.7 | 8.7 | 0.17 | 0.59 | 0.60 | 62 | 1009.9 |
| 20260506013559 | 50 | 0 | 2.6 | 9.6 | 0.16 | 0.58 | 0.57 | 61 | 1009.8 |
| 20260506012533 | 51 | 0 | 2.6 | 9.6 | 0.13 | 0.55 | 0.55 | 59 | 1010.0 |
| 20260506011518 | 51 | 0 | 1.7 | 7.8 | 0.13 | 0.52 | 0.52 | 56 | 1009.4 |
| 20260506010506 | 53 | 0 | 1.7 | 7.8 | 0.61 | 0.48 | 0.50 | 55 | 1009.2 |